Theta_e
340 345 348 350 352 352 351 351 351 352 353 354 354 354 353 353 353 353 353 351 351 350 350 349 350 350 350 350 350 349 349 349 349 348 348 347 347 347 346 347 347 348 347 347 347 348 348 348 347 347 346 346 353 353 353 352 352 351 350 349 350 349 350 349 356 355 354 355 353 353 354 352 353 352 354 353 353 354 353 352 350 349 349 350 352
343 345 346 346 351 353 353 351 351 352 353 353 354 353 353 353 352 352 353 353 351 351 350 349 349 350 350 350 349 350 349 349 349 348 347 347 347 347 346 346 346 346 346 346 346 346 347 347 347 347 346 345 352 353 352 352 351 351 351 349 349 348 347 350 354 353 352 352 352 353 353 354 353 353 354 353 353 353 351 350 350 348 347 351 352
342 346 344 346 348 351 353 353 351 351 352 352 353 353 353 352 353 353 352 353 353 351 350 350 350 350 350 350 350 349 348 347 348 347 346 346 346 346 346 346 346 346 347 346 345 345 345 346 347 345 346 345 353 353 352 352 351 350 349 350 349 348 347 353 353 352 351 351 350 350 349 351 354 353 354 354 354 354 351 350 350 349 349 351 352
338 341 344 345 345 348 352 353 354 354 354 354 354 354 354 354 353 353 352 352 352 351 350 349 349 350 349 349 349 349 348 347 347 346 346 346 346 346 346 346 346 346 346 346 346 345 344 345 346 346 346 353 353 352 351 351 350 346 348 347 343 347 348 353 352 351 350 349 349 347 346 347 348 353 353 354 354 354 349 349 349 351 351 350 352
338 337 340 345 344 344 350 353 353 354 355 355 354 354 353 354 354 353 352 352 352 352 351 349 349 349 349 349 348 348 348 347 347 347 346 345 346 346 347 345 346 347 346 347 347 345 345 345 344 345 345 354 352 351 350 350 349 347 347 347 347 346 350 352 351 351 349 348 348 346 346 347 346 350 351 353 353 352 348 350 351 352 352 351 351
335 338 337 349 345 345 347 351 352 353 353 354 354 354 353 353 353 353 353 352 352 351 351 350 349 348 348 348 348 348 347 347 347 347 347 346 346 346 347 346 347 347 348 348 347 347 345 344 344 345 345 353 352 351 350 349 348 347 346 346 347 348 352 351 351 350 348 346 345 343 343 346 348 349 351 351 354 351 351 352 353 352 352 351 351
333 340 339 338 348 346 344 350 351 352 353 354 354 354 354 353 353 352 352 352 351 351 350 351 350 348 348 348 347 347 346 346 346 346 346 347 347 346 347 346 346 347 348 348 347 347 346 345 345 345 344 352 352 350 350 348 346 346 346 347 347 348 352 351 349 349 347 345 345 344 341 344 347 347 350 348 351 353 353 352 352 352 351 351 351
324 341 339 337 340 345 344 349 351 352 353 353 355 355 354 354 352 352 352 351 352 351 351 351 350 350 349 347 347 347 346 346 346 346 346 346 347 347 346 346 347 347 347 347 346 345 345 345 345 345 344 352 351 350 349 348 347 346 346 347 348 347 351 350 349 347 346 347 342 342 340 343 346 347 350 350 348 353 353 351 351 351 351 351 347
321 322 335 336 339 343 344 348 350 351 352 353 353 354 354 354 353 353 351 351 351 351 351 350 349 349 348 347 347 346 346 346 346 346 346 346 345 346 346 347 346 346 347 347 347 346 345 345 346 346 345 352 350 350 349 348 347 346 347 347 347 346 350 349 347 345 345 340 340 340 340 341 344 345 350 349 351 350 352 351 350 349 350 348 346
318 321 328 335 343 340 343 347 350 350 351 351 352 353 352 352 353 353 351 351 351 350 350 350 349 348 348 347 347 346 346 346 346 346 346 345 345 346 346 346 347 346 347 349 349 348 347 346 346 346 346 352 351 350 349 348 347 346 347 348 347 347 350 349 346 344 344 338 338 339 340 342 344 345 348 351 350 349 350 345 345 344 346 346 346
325 324 326 338 338 339 345 346 347 348 348 350 350 350 351 352 352 351 351 350 349 350 352 351 350 349 348 348 347 347 347 345 346 347 347 347 347 348 348 348 347 346 347 348 349 349 349 348 346 346 347 351 350 350 349 348 347 347 347 347 346 346 350 348 344 345 341 337 337 339 340 342 342 342 350 349 348 349 348 344 343 344 346 347 349
329 327 328 335 338 337 342 344 343 345 346 347 348 349 350 351 352 352 351 350 351 350 351 350 349 348 348 348 347 346 346 346 346 347 347 349 349 348 347 348 348 348 347 348 349 349 349 349 347 346 346 349 350 350 349 348 348 348 348 347 343 343 347 345 345 343 337 335 337 338 339 338 342 343 350 349 348 348 344 344 347 348 349 349 348
329 329 329 333 335 334 338 340 341 342 343 345 348 349 350 350 351 352 351 350 348 349 349 350 351 350 347 347 347 345 346 348 346 345 347 349 348 348 348 348 347 348 348 347 348 349 349 347 347 346 346 350 350 350 349 348 348 347 347 345 345 344 344 342 343 336 334 335 337 338 340 338 339 345 349 348 348 349 346 347 349 349 349 348 348
326 330 330 333 333 336 335 337 338 340 342 344 346 347 348 349 350 350 350 349 349 349 349 346 346 347 346 344 347 347 347 342 344 346 348 348 348 348 348 348 347 347 348 347 347 346 348 347 347 346 347 351 349 348 347 347 348 347 345 346 344 345 341 338 338 335 334 336 336 339 339 338 339 346 349 349 347 349 347 347 348 348 348 348 347
326 328 330 330 331 332 332 333 336 337 338 339 342 344 346 347 348 349 349 350 350 349 349 347 348 347 344 345 345 344 343 344 348 349 350 349 349 349 348 347 347 347 347 347 346 346 346 347 347 347 347 349 348 348 348 347 348 346 344 345 343 342 339 342 338 338 337 337 337 338 337 338 341 348 349 348 348 348 347 347 347 347 347 346 348
327 328 329 329 330 331 332 332 331 334 335 338 339 340 342 344 345 346 347 348 348 349 348 348 348 348 347 346 344 342 342 343 348 349 347 348 349 348 347 347 347 347 347 346 346 346 347 347 346 347 347 345 348 348 347 346 346 345 344 343 341 338 336 333 335 335 336 337 337 337 337 337 344 349 350 348 347 346 348 346 345 347 346 346 346
325 325 324 324 327 328 329 331 331 329 330 332 334 336 338 340 342 344 345 346 346 346 346 346 346 346 346 346 345 342 341 342 348 348 349 348 347 347 347 346 347 346 346 346 345 345 346 346 346 345 346 346 344 347 347 346 345 343 342 341 339 337 332 329 336 336 334 335 338 340 338 341 343 350 350 348 348 347 345 346 346 345 346 345 343
315 316 314 316 316 318 324 328 331 332 332 330 329 331 333 335 338 339 340 341 343 344 344 344 344 343 342 341 340 339 338 342 345 346 347 346 345 346 346 346 346 346 346 345 345 345 346 346 345 345 346 346 344 346 346 345 343 342 340 339 337 334 330 329 336 335 338 336 334 336 339 339 342 349 348 349 348 347 345 345 345 345 345 344 344
312 313 312 312 312 314 315 319 325 329 331 331 332 334 330 332 334 336 336 338 340 340 340 341 339 338 339 337 335 334 334 335 337 339 342 340 338 338 341 345 346 345 344 344 344 344 345 344 344 345 345 346 344 346 345 341 339 338 339 337 334 331 328 330 335 336 338 335 335 335 337 340 343 348 348 347 348 348 346 346 345 345 344 343 344
310 310 310 310 311 312 311 313 316 320 324 328 330 330 330 329 330 333 334 336 337 337 338 338 334 331 331 330 328 330 329 331 328 332 331 336 335 333 334 341 343 342 343 342 343 344 344 344 344 344 345 344 345 344 342 338 337 339 337 334 330 325 329 333 335 335 337 335 335 335 336 339 346 348 347 347 346 344 345 345 345 344 342 343 343
308 307 308 307 307 309 310 311 312 314 318 321 327 331 332 329 329 327 328 329 332 333 334 332 327 325 324 325 323 329 335 336 335 332 327 331 326 325 330 338 341 339 340 340 342 343 343 343 343 344 344 343 340 338 336 336 336 336 335 331 323 324 327 334 334 335 335 333 334 334 335 340 346 348 348 347 346 344 345 344 343 342 343 343 342
302 303 305 305 306 307 309 310 310 311 314 319 323 328 330 330 331 333 333 330 328 327 330 332 328 333 327 329 333 333 334 336 336 330 334 333 330 322 325 333 337 337 336 338 340 340 342 342 343 343 342 340 335 337 334 331 333 333 329 324 323 326 331 333 333 333 332 332 333 333 335 341 346 347 348 347 345 344 343 343 341 342 343 342 342
300 301 302 304 304 306 306 308 309 310 311 313 319 322 323 326 328 329 331 331 330 330 332 332 334 335 335 335 332 335 335 335 334 332 333 327 333 322 324 330 334 334 333 334 336 337 338 340 341 341 340 336 334 334 334 334 334 324 320 323 327 331 333 333 333 332 331 332 333 332 335 342 345 345 346 345 345 344 342 343 343 342 342 342 342
300 300 301 304 303 303 304 307 308 310 310 310 314 317 320 322 323 325 327 328 329 334 334 335 335 335 335 335 335 335 335 335 327 324 323 330 331 320 322 325 326 327 326 328 329 331 335 337 338 337 332 329 333 332 331 329 328 326 324 326 329 331 332 333 332 332 330 331 333 331 336 342 344 345 345 345 345 343 342 341 343 341 341 340 340
300 301 301 302 303 303 303 305 307 309 310 310 311 312 315 319 321 322 324 326 327 329 329 333 335 335 335 334 334 333 333 334 333 330 329 330 329 327 324 326 328 328 321 327 325 326 328 329 332 330 330 331 330 331 330 327 325 326 327 328 329 330 330 330 330 332 332 332 332 330 333 341 344 345 346 345 344 343 344 343 342 341 341 340 340
299 299 300 301 303 303 304 304 305 308 309 311 312 312 313 314 316 319 322 324 326 326 327 328 330 332 333 333 333 332 331 330 330 330 330 331 329 328 328 329 330 328 325 328 326 326 325 328 329 328 329 330 330 330 329 326 324 326 327 328 329 329 330 329 329 330 331 330 329 329 332 338 342 343 345 344 343 343 342 342 341 341 341 340 340
297 298 300 301 303 302 303 303 302 306 307 310 311 311 311 312 314 317 319 320 323 324 325 326 328 329 330 331 330 330 330 330 329 328 329 329 328 329 330 331 331 328 327 328 328 327 320 324 328 328 328 329 328 328 328 327 326 327 327 328 329 329 329 328 329 329 330 328 324 326 330 334 341 343 343 344 343 343 345 343 341 340 340 340 338
297 297 299 299 300 301 303 302 302 303 303 306 306 308 310 312 312 314 316 318 320 321 323 325 327 327 328 330 328 329 330 329 329 327 328 329 328 328 331 330 331 329 328 327 326 325 321 322 326 328 328 328 326 325 326 325 326 327 327 327 327 329 329 328 328 328 329 328 327 324 327 330 334 340 342 343 346 345 343 341 342 341 341 340 338
295 296 298 299 299 301 301 302 302 302 303 303 303 305 306 307 311 312 313 315 317 319 321 323 324 326 327 328 328 328 328 328 327 327 328 328 329 328 330 329 330 329 327 326 326 324 322 322 324 326 325 323 324 324 325 326 326 326 326 325 326 326 326 328 328 328 328 327 327 324 325 328 332 336 339 342 343 343 341 340 340 340 340 339 338
294 295 296 298 299 300 300 300 300 302 302 302 301 302 302 303 305 307 312 314 316 318 320 321 322 324 325 327 328 327 327 326 327 327 327 328 328 326 325 326 328 329 327 325 325 324 323 322 323 322 321 323 323 321 323 324 325 325 325 324 324 324 324 325 325 325 325 326 326 324 321 324 329 334 336 337 339 341 343 340 340 339 339 338 338
295 294 295 296 299 299 300 300 300 301 301 300 300 301 301 301 303 305 307 311 315 317 318 320 321 323 324 325 326 327 326 327 326 326 325 328 327 324 326 327 326 328 327 325 325 324 323 323 322 321 321 320 321 322 322 321 322 323 322 324 322 320 322 324 324 323 322 324 325 324 323 321 326 329 331 335 337 339 341 339 339 338 338 337 336
294 294 294 296 296 298 299 300 300 300 300 300 300 300 300 301 303 304 304 307 312 315 317 318 318 321 323 324 326 326 326 325 325 324 324 324 323 324 325 325 323 328 327 325 324 323 322 322 322 322 320 320 320 321 323 322 320 319 320 321 321 320 321 322 322 321 321 322 324 324 324 323 320 324 326 332 336 338 339 338 338 338 337 336 335
294 295 295 295 295 297 298 299 300 300 300 299 299 299 299 301 302 303 304 306 307 310 313 315 317 319 321 322 324 325 325 325 325 323 322 324 324 323 324 323 323 326 326 325 324 323 322 321 320 320 319 318 318 319 319 323 321 319 318 320 321 320 320 320 321 321 321 320 322 324 324 322 321 317 320 325 333 337 337 337 337 337 337 335 335
294 294 294 294 296 297 298 298 298 298 299 299 299 298 298 299 301 302 303 304 306 308 311 314 316 317 319 321 322 323 323 325 325 323 323 322 323 323 324 323 324 325 326 325 324 323 322 321 320 321 317 318 318 318 318 319 320 320 319 319 319 319 319 319 319 320 321 321 323 323 323 322 321 321 322 319 324 329 334 336 336 336 335 335 335
294 293 293 294 295 295 297 296 297 296 296 297 298 298 298 298 299 300 301 303 306 307 307 309 312 315 317 319 321 321 322 324 324 323 322 322 322 322 323 323 324 325 325 324 324 323 322 320 320 320 317 317 318 317 318 318 319 319 318 318 319 319 319 318 318 317 319 320 321 322 322 321 321 321 321 320 315 321 328 333 334 334 334 334 334
293 293 293 294 293 294 296 295 295 295 295 296 296 297 298 298 298 300 299 302 304 304 305 306 309 311 314 318 321 321 321 321 323 323 321 321 322 322 323 324 324 324 324 324 324 322 322 321 321 319 316 316 317 318 317 316 317 317 316 317 318 318 319 318 318 317 318 318 318 320 321 320 321 320 317 321 322 320 321 326 330 332 332 332 333
292 292 292 292 292 293 294 294 294 294 295 295 296 296 297 297 297 298 299 300 300 300 303 305 305 304 306 311 316 319 320 321 321 322 322 320 320 321 322 323 322 323 324 323 324 323 323 321 320 319 317 316 317 317 317 315 315 316 316 316 317 317 317 317 317 318 317 317 317 316 319 320 318 314 321 321 321 323 319 322 326 327 326 329 331
292 292 292 292 292 292 293 293 294 294 295 295 295 295 296 297 297 297 298 298 298 299 301 302 301 301 303 307 313 315 317 320 320 322 322 321 320 321 321 321 321 322 322 322 323 323 323 321 319 319 317 316 316 316 316 316 316 315 315 315 316 316 315 315 315 313 317 317 317 317 318 319 319 319 320 320 321 321 322 321 320 320 318 324 330
291 291 291 292 292 292 293 292 293 293 293 293 294 295 295 295 297 296 296 296 297 297 298 299 299 300 302 304 308 312 315 317 318 318 320 320 320 319 320 320 321 321 321 321 321 321 321 321 319 318 317 315 316 317 316 316 316 315 315 315 315 315 314 313 312 314 316 317 317 316 316 318 319 319 319 320 319 319 320 318 319 319 320 321 327
290 290 291 291 291 291 291 292 292 293 293 293 293 293 293 293 293 295 295 295 296 296 297 298 300 300 300 302 306 307 309 312 315 317 317 318 319 319 319 320 321 321 321 320 320 320 320 318 317 317 315 314 315 315 316 315 315 314 312 313 313 313 312 311 311 312 313 315 316 316 317 317 317 318 319 319 318 319 318 317 315 318 319 320 322
289 289 290 290 290 291 291 290 292 292 292 292 292 292 291 292 292 292 293 295 295 296 296 298 299 300 299 301 303 302 305 309 312 314 314 315 317 319 319 319 321 320 320 320 321 320 320 319 317 316 315 313 313 315 315 316 313 311 311 309 308 309 308 310 311 311 311 312 314 315 315 316 316 317 318 317 317 317 317 316 316 316 318 319 318
288 289 289 289 290 290 290 291 291 292 292 292 292 292 292 292 291 292 293 294 295 295 295 296 297 299 299 301 300 300 303 306 309 312 313 313 314 316 318 318 319 318 319 319 320 317 318 318 316 315 316 313 313 315 315 315 311 308 305 303 304 306 305 307 308 310 310 310 313 315 315 316 316 317 316 317 317 316 316 316 316 315 314 316 317
288 288 289 289 290 290 290 291 291 291 291 292 292 292 292 292 292 292 292 293 295 297 296 296 297 297 298 299 299 299 301 303 307 309 311 313 313 314 316 318 319 317 317 318 318 316 318 317 316 315 314 314 313 316 315 315 310 310 308 305 302 303 302 303 303 303 307 308 311 314 314 315 315 315 316 316 316 316 316 316 316 315 314 314 315
288 288 289 289 290 290 290 291 291 291 291 291 292 292 292 292 292 293 293 293 293 295 296 296 296 296 296 297 298 299 301 302 304 307 310 312 312 312 313 317 317 317 317 317 317 316 317 317 316 315 315 311 312 313 316 315 313 309 303 304 304 305 300 300 303 301 301 306 309 313 314 315 314 312 313 315 315 315 315 315 316 315 314 314 315
288 288 289 289 290 290 290 290 291 291 291 291 291 291 291 291 291 292 292 292 292 292 292 293 294 294 295 296 297 299 300 300 302 305 307 309 309 309 309 311 317 317 316 317 316 316 316 316 316 315 315 313 311 312 313 315 313 313 308 304 300 301 302 303 301 298 300 304 305 308 309 314 313 312 313 314 314 315 315 315 315 315 315 315 315
287 288 289 290 290 290 290 290 290 290 290 291 291 291 290 289 289 288 288 288 288 289 289 290 291 292 294 296 298 299 299 300 302 304 305 306 306 307 307 307 309 316 316 317 317 316 316 315 316 316 315 315 313 311 311 313 314 312 313 312 310 304 301 299 304 297 296 297 298 302 304 310 312 311 313 313 313 313 313 315 315 315 315 315 315
288 289 289 289 290 290 290 290 290 290 291 290 290 290 289 289 288 288 288 288 288 289 290 291 292 293 295 296 297 298 298 299 300 302 304 304 305 305 305 305 306 310 315 316 316 316 316 316 316 316 315 314 314 311 310 311 312 312 312 311 306 305 308 304 303 298 294 296 298 300 303 303 309 311 311 312 313 313 314 314 314 315 315 314 314
288 289 289 289 289 289 289 289 289 289 289 290 289 289 288 287 287 287 288 288 288 288 290 291 292 293 294 295 296 296 298 299 299 300 302 303 303 304 304 304 304 304 309 315 316 317 317 317 316 317 316 315 313 312 311 311 309 309 311 308 305 306 307 308 309 303 301 297 296 296 298 300 303 309 311 312 313 313 313 313 314 313 313 313 314
288 288 288 289 289 289 289 289 288 288 288 289 289 287 287 286 285 286 286 288 288 289 290 291 291 292 292 294 295 296 297 298 299 300 301 302 302 303 303 303 303 303 302 309 316 316 316 316 315 315 315 315 314 313 312 311 311 310 309 303 306 305 306 303 298 300 302 299 295 298 298 297 300 303 307 309 312 313 313 313 313 312 311 312 313
288 289 289 289 289 288 288 288 287 287 288 287 286 285 284 285 285 285 285 286 288 288 289 289 290 291 290 292 294 294 294 296 298 299 299 300 301 302 302 302 302 302 300 302 310 316 316 316 315 315 315 314 314 313 312 312 312 312 311 307 305 304 304 300 299 300 299 303 298 297 299 298 299 298 296 302 308 311 312 312 311 312 312 312 312
288 288 288 288 288 288 287 286 286 287 286 285 284 283 284 284 282 282 282 282 283 286 287 288 289 290 290 291 293 293 293 295 297 297 298 299 299 300 301 301 302 300 300 302 303 313 316 316 316 315 315 314 313 312 311 312 312 311 310 308 307 306 304 302 302 301 300 294 296 299 300 301 303 297 296 297 302 307 310 310 311 310 311 311 310
Wind_Speed
2 0 3 7 7 6 9 10 10 10 9 9 11 11 11 11 11 11 11 11 11 11 11 11 11 11 11 12 11 10 10 10 10 10 10 10 10 10 9 9 9 9 9 9 9 9 9 9 9 10 8 8 6 7 9 10 12 12 10 9 9 7 7 8 9 9 10 10 10 9 8 8 9 10 13 13 13 12 10 8 9 8 7 10 17
1 1 3 4 7 5 7 9 9 9 9 9 10 10 11 11 11 11 11 11 12 12 12 12 11 12 12 12 11 11 10 10 10 9 9 9 10 10 10 10 10 10 11 11 11 10 10 10 10 10 9 8 6 8 9 11 12 13 11 12 11 10 8 11 8 8 9 10 10 6 5 8 9 10 12 14 14 13 7 8 10 6 5 13 14
3 2 0 6 7 5 4 7 8 8 9 9 9 9 10 12 10 10 11 12 12 13 13 13 12 13 13 13 12 11 10 10 10 11 11 11 11 11 12 11 11 11 11 12 12 12 11 11 11 11 10 7 8 8 9 9 12 11 12 11 8 10 12 9 7 7 9 10 11 7 5 4 9 12 13 13 12 10 8 10 9 9 8 16 14
2 2 2 6 7 5 2 3 5 5 5 7 7 8 8 10 11 11 12 13 13 13 14 14 13 13 13 12 12 12 11 11 11 12 12 12 12 12 11 12 12 13 13 12 13 12 12 12 12 12 11 6 10 10 10 9 10 11 12 9 11 12 15 9 9 8 9 9 10 8 3 3 4 10 14 14 12 8 5 10 12 11 15 15 16
1 2 1 5 5 4 4 3 3 4 5 6 8 8 10 9 10 10 12 13 14 14 13 13 14 13 13 12 12 12 12 12 12 13 13 14 14 13 10 12 14 14 13 13 13 13 13 12 12 12 12 9 10 10 10 11 11 11 10 10 14 14 13 11 10 9 9 9 9 8 5 3 3 5 13 16 12 6 7 12 14 16 15 16 16
3 1 4 5 4 5 5 3 4 4 6 7 8 9 10 11 11 11 11 13 14 15 14 15 14 13 13 13 12 12 13 12 13 13 13 14 14 13 12 12 14 14 14 14 14 13 13 13 13 12 11 11 11 11 11 12 13 13 10 12 13 15 13 12 12 10 9 9 8 5 5 5 3 3 10 13 11 9 11 13 15 15 15 17 17
4 3 3 5 5 6 9 5 6 5 5 7 8 8 10 11 11 12 13 13 14 15 15 14 13 13 13 13 13 14 14 14 14 14 13 14 15 14 13 13 14 15 15 15 15 14 14 13 13 12 11 12 12 12 12 14 13 11 10 12 15 12 12 12 12 11 10 7 4 3 5 6 5 3 11 7 8 14 15 14 16 16 16 17 17
7 1 1 2 5 7 11 8 6 5 5 5 6 8 10 10 11 13 13 14 14 14 14 14 13 13 13 13 13 14 14 13 13 14 14 14 14 14 13 13 14 15 16 15 15 14 14 14 13 13 12 12 12 13 14 14 15 13 13 13 11 13 10 11 11 10 10 6 5 3 5 5 6 4 11 14 12 16 16 15 15 16 17 16 11
6 7 1 1 3 7 9 8 7 6 5 6 6 6 7 9 10 11 13 14 13 14 14 14 14 14 13 13 14 14 14 14 14 14 14 14 15 14 14 13 13 15 15 15 15 14 13 14 13 13 13 12 12 14 15 15 15 14 16 12 11 14 12 11 10 10 7 4 5 4 3 5 6 5 12 13 14 13 18 14 13 16 17 12 12
9 7 5 5 7 7 2 2 6 7 6 5 5 6 8 9 9 10 13 14 14 14 14 14 14 14 14 14 13 14 14 14 14 14 13 14 14 15 13 14 13 13 15 16 16 15 14 13 13 13 14 12 12 14 16 15 16 16 17 15 13 16 14 13 12 10 6 4 5 5 5 6 5 5 9 15 17 16 14 13 9 9 9 12 12
9 10 8 6 6 7 5 3 4 4 6 7 7 7 9 9 10 12 13 13 14 13 11 13 14 14 14 14 14 13 13 14 12 12 12 10 8 7 7 8 11 14 16 16 16 16 16 15 14 14 14 11 14 14 16 16 16 17 17 16 13 14 12 13 12 6 5 5 6 5 6 12 5 4 9 15 16 16 10 11 12 12 13 13 16
8 8 8 6 6 6 5 4 1 2 5 8 9 10 9 10 10 12 12 12 12 12 13 13 14 15 15 13 14 14 14 13 13 12 10 6 8 8 8 10 10 10 12 13 15 17 16 17 16 14 13 9 14 15 17 17 18 17 17 15 16 17 12 12 8 6 5 5 3 4 4 5 7 6 13 15 17 15 7 6 14 19 17 17 18
7 7 8 6 5 5 3 1 1 4 5 7 8 10 11 11 11 11 12 11 12 11 13 13 11 12 14 13 12 14 12 11 11 11 9 10 10 10 10 11 12 11 11 13 14 16 17 17 17 16 14 10 14 14 17 17 18 18 17 19 19 17 12 11 7 6 6 4 3 5 4 5 5 10 15 17 18 16 13 13 18 18 17 19 20
7 6 5 6 5 7 3 3 4 6 8 9 9 9 10 10 11 12 11 12 8 9 10 12 14 11 10 12 11 10 10 12 12 13 13 13 12 12 12 12 12 12 12 14 15 16 16 17 17 17 16 10 15 15 16 18 19 20 19 18 18 14 13 10 5 3 5 4 3 5 4 5 5 11 17 18 17 17 14 15 19 18 19 19 20
7 7 6 5 5 5 5 4 5 6 9 11 11 10 11 11 9 10 12 11 10 10 10 12 11 11 12 13 8 9 11 16 14 13 12 13 12 12 12 12 12 12 12 13 14 15 16 16 16 16 15 12 16 17 16 17 18 20 22 20 19 16 15 8 4 2 4 4 3 4 4 3 8 13 18 19 19 17 16 18 18 20 19 17 19
6 7 6 6 5 4 5 6 5 7 7 9 10 12 13 12 11 11 11 11 11 11 11 10 9 9 9 9 9 10 13 16 14 11 12 13 12 12 12 12 12 12 12 13 14 14 14 15 15 13 12 13 16 18 18 18 18 19 22 21 19 17 16 9 5 3 4 2 3 4 5 3 10 15 18 19 19 17 18 20 19 18 19 18 19
11 11 10 12 11 7 6 5 7 6 7 8 9 9 11 14 14 12 11 11 11 12 11 10 10 9 10 9 10 11 12 16 12 12 12 12 12 11 11 12 12 12 12 11 13 14 14 14 12 12 12 14 16 17 19 19 20 20 18 20 19 18 14 10 6 4 4 4 3 1 2 5 13 15 17 19 20 17 17 18 19 19 19 19 20
12 12 13 13 13 14 11 8 7 5 4 6 9 12 11 9 10 13 12 11 11 12 10 10 10 10 9 10 10 12 16 14 11 12 12 12 12 12 12 12 12 11 9 9 11 11 12 12 12 12 12 14 17 17 16 19 19 18 19 20 20 19 15 11 6 4 4 4 2 2 1 5 12 14 17 21 20 20 21 22 21 19 20 21 22
10 11 11 13 13 12 13 12 9 8 6 6 5 6 12 14 14 15 14 13 12 12 12 11 11 10 10 9 10 11 11 12 12 12 12 12 12 12 12 12 10 9 9 9 10 11 12 13 14 13 14 15 19 19 18 15 14 17 19 21 21 18 17 10 7 6 5 5 5 3 2 6 11 14 18 22 21 22 23 19 21 21 22 22 22
9 10 9 11 11 11 13 11 12 12 11 10 7 7 10 10 13 15 16 16 14 13 13 13 12 12 12 11 10 9 10 10 13 12 13 14 13 11 11 9 9 9 8 8 9 11 13 14 14 14 16 16 18 20 19 19 20 19 18 18 18 17 11 7 7 5 4 5 5 5 6 8 12 17 20 20 20 22 23 22 23 23 24 22 22
8 10 8 11 12 11 13 10 11 13 12 12 9 8 6 12 8 10 14 15 15 15 15 14 12 11 12 12 11 8 7 7 9 8 11 11 11 11 10 9 7 8 8 7 10 11 13 14 15 16 17 18 18 20 19 20 21 17 19 18 18 12 8 8 8 6 5 5 6 5 6 10 15 20 22 22 23 24 22 19 21 25 25 24 23
9 9 10 11 12 11 12 11 10 13 13 9 8 8 8 8 8 8 6 9 11 13 12 10 10 8 11 10 8 7 7 7 8 9 8 9 10 11 11 10 10 9 9 9 10 11 11 11 12 14 16 16 17 12 13 20 23 19 18 19 13 8 9 8 7 6 6 5 6 7 9 12 19 22 22 23 24 20 20 22 23 24 24 24 23
11 10 10 12 12 9 12 13 11 12 13 12 8 7 9 8 8 8 7 7 8 10 9 10 9 10 9 8 8 8 8 8 8 8 7 11 10 12 12 12 10 10 10 11 9 8 10 13 13 14 14 16 11 7 8 9 15 23 19 14 10 9 9 7 7 7 6 6 5 9 9 13 20 21 22 24 24 22 18 21 22 25 25 25 26
10 9 9 8 13 12 12 12 11 11 11 11 10 9 7 8 8 9 8 8 8 6 7 8 8 9 9 9 8 8 9 8 9 13 12 9 8 11 12 10 9 9 11 6 5 6 12 13 13 11 6 7 7 8 8 9 10 10 9 10 9 8 9 8 7 7 6 6 6 11 9 13 19 21 23 23 23 23 25 25 25 23 24 27 27
8 8 7 10 12 14 12 12 13 11 11 10 11 10 10 8 7 7 8 7 7 8 7 6 8 9 9 8 9 8 8 8 8 7 6 6 5 6 6 6 6 5 7 5 4 3 1 3 5 6 6 8 8 8 9 10 9 8 7 4 5 5 4 5 6 7 6 5 6 11 9 11 19 22 24 25 24 24 24 25 25 25 27 28 28
10 9 10 10 11 13 12 11 11 10 12 10 10 8 11 9 10 9 9 8 8 8 9 8 7 8 8 9 9 9 9 7 8 6 7 8 7 7 7 6 6 6 6 5 4 4 2 4 6 6 5 6 8 9 9 11 11 11 9 9 5 4 5 5 5 6 6 6 7 11 10 13 17 20 20 24 24 26 26 26 26 27 24 29 29
8 9 9 10 11 13 12 12 13 10 13 12 10 9 7 7 8 9 10 9 8 9 8 9 9 8 9 8 8 8 8 8 8 7 7 7 7 7 7 7 7 7 7 6 6 6 3 4 6 7 6 8 8 9 9 10 11 12 10 9 9 8 6 5 5 6 6 6 6 11 10 10 15 20 21 23 25 25 26 25 27 26 25 26 28
9 11 9 9 10 13 12 12 12 11 12 12 12 11 9 9 8 8 9 10 10 10 9 9 10 9 9 9 9 8 9 9 8 7 8 7 8 8 8 7 7 7 7 7 7 6 5 4 4 8 8 8 9 6 7 5 5 9 12 9 8 9 7 7 6 6 7 6 6 9 11 9 8 15 23 23 26 26 27 30 28 29 27 28 28
11 10 8 9 9 11 11 11 13 11 12 12 11 10 10 11 9 8 8 9 9 9 10 11 10 10 10 11 9 10 8 8 8 8 8 9 9 8 10 9 9 7 7 7 8 8 7 7 6 7 6 5 6 8 9 10 10 6 7 9 8 7 7 7 6 6 7 7 6 8 11 9 5 6 14 21 24 30 30 30 31 30 30 29 27
9 8 8 8 7 10 10 11 13 10 10 10 10 10 11 11 11 11 10 8 8 9 10 9 10 10 10 10 11 8 11 9 8 7 6 8 9 7 5 7 7 8 8 8 8 9 9 7 6 6 4 5 7 2 2 6 7 7 7 8 8 8 7 7 6 5 5 6 7 8 12 11 7 4 11 16 23 25 32 31 29 28 28 27 28
9 9 10 10 9 11 11 11 12 11 10 11 11 10 11 11 11 11 10 10 9 8 8 9 10 10 10 11 12 11 9 12 10 8 6 7 8 7 10 10 8 8 8 9 8 10 9 9 9 9 9 5 7 7 5 4 2 4 6 7 9 6 6 7 6 6 5 5 5 5 9 13 11 8 5 11 17 24 24 30 29 28 27 28 27
9 9 8 8 11 11 12 12 13 14 14 14 12 12 12 12 12 10 11 12 12 10 8 9 9 10 10 11 11 11 11 10 12 9 7 6 7 9 11 8 5 8 9 9 10 10 10 9 9 9 7 8 7 7 9 9 5 0 1 5 6 8 6 7 7 6 5 4 5 5 5 6 10 10 7 14 18 23 25 26 25 26 25 28 29
6 7 10 9 11 10 10 11 11 12 12 13 12 11 12 12 11 11 11 12 13 12 11 9 10 10 10 11 12 13 11 10 11 13 9 7 8 7 9 7 9 7 9 11 12 10 9 8 7 6 6 6 5 5 4 9 10 6 2 2 6 7 5 7 8 7 6 4 3 4 4 5 4 8 7 7 18 23 27 27 30 29 30 30 29
8 7 9 10 10 9 8 9 10 12 12 12 11 10 11 11 11 10 11 12 11 12 12 11 10 10 10 11 12 12 11 11 11 12 11 9 9 10 11 9 9 9 10 11 11 10 11 11 10 9 8 8 8 6 7 8 9 10 6 4 4 6 5 7 6 6 6 6 6 5 5 5 5 4 5 3 10 14 20 28 30 29 30 30 28
8 9 11 10 11 10 9 9 11 12 13 12 12 11 10 11 11 10 11 12 10 11 12 13 13 12 11 10 11 11 12 12 12 12 13 11 9 10 10 9 9 10 11 11 11 10 11 12 11 10 8 7 8 7 7 6 9 11 10 7 7 7 6 6 5 4 5 5 5 6 6 5 5 5 5 3 6 12 7 16 23 29 29 29 29
10 10 10 10 12 11 9 9 11 13 15 13 12 12 12 10 10 10 11 11 10 10 11 12 12 12 12 12 14 13 12 14 14 13 12 11 10 10 12 11 11 8 10 11 11 11 10 10 11 12 11 10 10 9 6 6 6 8 7 7 6 7 7 6 6 5 5 5 5 6 6 6 6 6 6 6 4 10 9 7 10 18 26 28 26
8 8 8 10 11 10 8 9 10 12 11 11 12 13 12 12 11 11 11 10 10 11 10 10 11 12 12 13 13 14 13 14 13 13 13 11 10 10 11 11 10 9 10 12 12 12 12 11 11 11 13 13 12 12 10 8 8 7 7 8 6 6 7 7 6 6 5 4 5 4 5 7 6 7 6 6 5 7 11 11 11 10 17 21 26
6 7 7 10 11 8 9 9 11 12 10 11 11 10 11 12 10 10 9 10 10 10 10 10 11 11 12 12 14 14 14 14 14 12 12 13 12 11 11 10 8 8 10 12 12 12 13 13 13 12 12 12 12 11 12 9 8 8 7 8 7 6 6 6 5 5 6 6 5 4 4 5 7 6 6 7 7 7 9 12 13 14 16 17 20
7 8 10 10 9 9 9 10 11 11 12 13 12 11 12 11 10 9 8 9 9 9 10 10 9 10 11 13 14 13 14 15 15 14 12 13 14 14 13 12 10 10 9 13 11 12 13 13 14 13 12 13 14 13 12 11 9 8 8 8 7 6 5 5 5 5 5 6 6 5 4 4 5 7 7 8 8 7 10 7 7 6 10 17 20
6 9 12 11 10 11 10 10 9 11 11 11 12 12 11 11 12 10 10 9 9 9 10 10 9 9 10 13 12 12 14 14 15 14 13 13 14 13 12 10 12 11 12 11 12 12 16 16 15 16 15 12 10 9 9 9 9 7 7 5 4 5 5 5 4 4 4 5 6 5 5 4 5 7 8 8 8 9 8 8 6 7 8 13 17
6 8 10 9 10 12 13 13 12 12 11 11 11 12 13 12 11 12 13 11 10 11 10 10 9 8 12 12 11 11 13 14 14 14 14 13 12 14 11 12 11 13 14 14 15 15 15 15 14 14 17 14 11 11 10 12 12 10 8 7 5 4 4 5 6 5 4 4 5 6 5 6 5 7 8 7 9 9 9 8 7 6 8 9 11
7 9 9 10 10 12 12 13 13 12 12 12 13 13 13 12 13 13 13 14 13 11 12 10 9 9 11 11 10 10 12 13 13 13 13 11 12 12 13 9 11 11 13 12 12 13 15 14 14 13 14 19 15 16 14 13 11 13 12 7 5 5 5 4 4 5 5 4 5 7 5 7 7 6 7 9 9 9 10 8 7 6 6 7 8
7 9 9 11 11 11 12 14 13 13 12 13 13 14 14 14 15 15 15 14 13 12 11 12 11 10 10 9 9 11 11 11 12 13 12 12 11 12 12 12 12 10 10 12 14 13 14 16 17 16 13 11 11 13 17 18 15 12 11 11 7 9 1 2 2 1 0 3 5 7 7 7 8 7 8 9 10 10 9 9 9 8 7 7 8
7 7 9 10 10 10 12 14 13 11 14 15 14 15 17 20 19 18 18 16 15 13 13 12 10 10 10 8 9 9 10 11 13 13 12 12 11 11 13 13 10 11 12 14 14 16 15 15 15 17 16 14 12 14 16 16 14 17 14 13 11 10 10 8 8 1 2 3 5 8 8 8 7 6 5 10 10 10 10 9 11 10 8 8 8
9 10 11 11 10 12 13 13 13 15 14 16 18 17 16 16 16 18 16 14 12 11 11 12 11 10 10 9 9 9 10 10 11 13 11 12 10 9 11 14 14 12 9 11 14 16 15 14 17 16 18 17 13 12 13 13 14 18 16 10 6 8 13 10 10 1 1 4 4 4 6 10 9 8 8 7 8 10 11 9 9 9 9 9 9
10 10 10 11 12 13 14 14 15 16 17 18 17 15 16 18 17 16 17 15 15 13 12 12 13 13 12 9 8 8 8 9 10 11 13 11 10 9 8 11 14 13 14 13 12 13 15 14 16 16 18 17 18 15 13 14 16 16 13 16 18 16 13 8 14 7 1 1 1 3 3 7 9 9 9 8 9 8 9 11 9 9 9 9 9
11 10 9 10 13 13 13 16 16 17 17 17 17 15 17 18 20 19 18 18 18 15 13 13 13 12 10 10 9 7 7 9 9 9 11 13 12 10 9 8 12 15 13 13 12 14 16 17 15 16 17 15 16 18 20 17 14 14 12 9 2 3 11 19 14 8 7 0 1 3 5 4 7 11 9 11 11 10 9 9 11 10 10 9 9
14 11 9 11 15 16 16 16 16 19 20 19 16 16 16 17 21 21 18 17 16 18 17 15 14 13 13 13 9 7 6 6 8 8 10 12 12 11 9 8 10 13 13 12 14 14 14 15 18 19 16 14 15 17 18 16 17 16 14 8 3 4 11 14 21 21 17 15 6 3 1 1 3 7 10 12 12 13 12 9 10 10 8 9 9
13 9 14 16 15 14 14 18 22 21 20 22 15 15 19 22 23 20 20 17 16 17 17 16 14 13 14 11 8 7 6 5 7 7 8 11 11 11 9 8 9 12 12 14 14 15 16 16 19 18 18 17 17 16 17 17 17 18 15 7 7 8 11 6 3 4 16 14 8 11 9 2 0 3 7 8 11 12 12 11 11 10 9 10 9
9 12 16 14 13 14 18 20 21 20 20 17 18 23 25 22 18 19 22 21 17 17 17 17 16 14 16 16 12 8 6 5 6 7 6 8 10 10 9 8 8 9 10 14 18 16 17 18 18 19 19 20 15 16 17 18 17 17 19 14 11 10 11 5 6 9 6 19 19 13 12 12 12 5 1 4 8 12 11 10 11 10 10 9 9
10 13 14 14 15 15 17 21 23 20 17 18 19 23 21 16 18 21 24 24 25 22 20 18 15 13 14 14 12 8 7 6 5 6 6 7 8 8 9 9 7 7 10 12 16 16 16 18 19 21 22 22 18 17 17 17 16 16 17 15 16 19 19 19 16 12 13 6 7 15 13 12 13 10 3 1 6 8 11 10 10 10 10 10 9
Wind_Direction
258 271 88 132 135 164 177 177 172 181 198 201 206 201 207 205 184 204 208 206 215 216 215 216 217 218 218 216 212 211 212 214 216 216 216 218 219 223 227 228 226 228 232 234 240 243 245 247 252 258 260 269 191 181 198 212 208 200 205 209 214 198 216 225 137 137 126 122 116 120 127 129 130 131 128 135 132 127 118 108 100 101 110 125 125
254 276 112 134 124 140 174 178 174 189 201 203 207 208 206 211 203 198 202 211 213 215 216 217 219 223 224 224 223 218 219 223 230 231 233 234 233 229 229 235 239 238 234 235 236 240 243 245 249 254 257 260 199 190 194 203 204 202 203 198 206 209 197 209 143 139 125 117 108 97 119 135 132 135 132 133 131 129 122 115 108 106 115 127 122
350 131 148 132 135 132 175 174 184 199 208 209 211 221 208 214 212 207 207 211 215 216 217 216 218 220 224 225 225 228 233 236 239 244 247 247 246 248 247 242 244 248 246 241 238 237 238 241 245 249 251 250 177 176 188 196 201 205 203 199 203 192 192 182 149 138 126 120 111 100 92 122 137 138 139 138 138 137 126 127 116 120 129 131 122
9 325 120 126 136 149 126 201 190 205 215 212 211 217 220 213 214 215 217 217 217 219 221 223 220 222 228 232 232 231 234 238 244 247 249 247 248 247 245 249 248 246 250 250 245 239 237 238 240 245 245 193 172 176 181 193 188 204 216 179 211 196 198 150 149 140 126 120 123 121 118 98 127 147 145 145 146 130 120 126 121 129 130 129 125
4 305 76 130 145 162 184 189 192 209 207 223 220 218 219 220 217 218 225 224 221 221 225 230 228 222 226 233 236 238 239 241 244 247 249 251 253 248 239 242 247 247 248 251 251 246 240 238 237 239 244 170 174 180 180 191 186 197 210 190 197 188 190 148 145 144 136 135 140 131 141 125 106 146 155 150 142 109 128 125 132 134 131 129 128
332 351 327 141 155 162 180 217 204 214 213 220 226 224 225 225 225 225 225 223 222 225 227 227 231 231 231 233 235 241 248 249 248 249 253 254 255 254 249 243 247 250 250 252 252 250 244 239 237 236 237 172 175 177 175 182 170 181 205 190 199 188 169 154 149 146 142 148 159 148 143 141 134 160 164 159 136 126 129 130 133 133 133 134 132
327 35 1 338 148 158 176 196 218 223 231 227 229 228 229 231 231 229 226 222 224 224 225 226 231 237 237 236 241 247 251 254 254 257 254 255 254 253 253 251 251 255 257 255 254 252 248 243 238 235 232 173 175 177 176 171 167 169 189 203 199 195 162 153 150 149 148 149 183 173 138 140 143 143 163 160 147 135 133 139 137 136 137 138 133
332 102 23 325 325 151 169 184 205 235 258 267 244 235 232 235 235 236 230 229 226 226 224 225 229 234 240 242 243 247 252 254 255 256 256 257 256 255 253 250 251 256 259 260 257 255 252 246 240 237 233 176 177 177 178 180 170 170 187 198 184 192 159 157 154 151 153 161 177 178 136 138 144 141 169 161 180 143 142 145 146 144 141 134 124
338 334 103 28 25 128 166 184 196 218 250 282 288 260 249 245 242 242 244 237 234 229 229 232 231 235 241 243 247 249 250 250 251 253 257 259 258 255 254 251 246 249 255 258 259 257 254 252 247 241 238 191 179 180 178 181 177 171 183 185 185 187 165 160 155 156 167 163 178 174 155 147 141 149 172 173 156 165 147 147 149 147 140 128 131
349 342 357 55 68 55 88 174 208 223 246 266 288 285 264 259 252 246 244 240 234 235 231 237 237 241 241 243 246 249 251 251 250 253 257 260 260 258 262 255 255 249 249 253 258 259 256 250 252 248 243 193 183 179 176 180 177 177 182 181 185 197 169 159 164 168 176 175 177 181 172 144 140 155 182 167 173 172 155 146 147 140 135 138 138
0 345 346 56 72 76 65 23 349 313 311 306 302 276 266 264 260 257 250 247 243 238 229 233 239 242 243 245 247 250 255 256 251 252 253 257 264 261 260 260 253 255 255 256 259 264 264 260 249 247 244 212 181 177 180 181 178 178 179 184 180 197 170 163 162 181 183 194 180 187 136 152 148 156 190 179 173 167 163 155 143 139 145 148 150
359 347 350 15 41 71 73 60 40 330 313 300 292 284 278 268 263 261 260 249 243 241 236 240 245 245 246 248 253 246 245 248 258 248 248 229 239 253 263 264 265 264 265 266 267 268 269 269 265 251 240 224 184 180 183 183 182 181 174 173 169 210 174 167 167 183 194 202 177 166 134 148 160 174 179 189 168 173 154 178 148 150 154 153 151
2 4 344 359 0 58 34 24 301 276 271 275 283 280 277 278 272 262 257 261 261 255 255 255 251 249 253 251 257 267 261 247 242 260 247 235 233 238 248 252 256 261 263 265 271 273 273 273 269 258 246 214 181 186 185 180 184 180 166 169 177 195 174 173 176 185 201 194 176 171 149 158 166 166 180 187 174 171 162 185 157 156 159 156 153
1 358 350 340 340 328 313 305 287 284 277 277 275 277 275 281 284 273 267 261 255 257 265 266 264 271 289 289 272 279 282 267 251 236 230 233 232 231 239 246 249 254 258 263 269 273 276 275 271 261 248 196 182 183 190 186 181 173 165 168 173 180 167 175 172 201 206 189 172 173 158 170 175 171 177 189 179 165 174 172 168 161 155 160 150
3 351 347 337 336 334 338 274 276 269 282 279 283 283 274 278 281 284 275 271 267 261 247 245 251 253 244 249 277 282 278 278 264 235 224 227 227 227 232 240 248 252 258 263 269 273 276 277 275 268 264 206 180 181 179 181 181 173 174 173 171 173 166 174 161 214 186 186 168 165 164 174 179 173 175 193 173 173 174 170 173 162 151 162 150
3 349 342 345 334 329 326 310 257 277 270 274 271 283 286 280 283 287 281 273 274 271 267 269 267 261 256 261 254 254 259 257 245 232 235 235 228 230 231 235 242 249 256 262 270 277 277 276 273 266 253 211 187 182 180 178 184 181 175 173 166 166 168 165 170 196 196 190 194 178 165 183 168 179 182 182 173 180 174 173 168 159 155 160 150
5 358 0 5 356 349 339 330 327 282 273 271 270 269 273 276 277 274 280 282 274 270 273 271 266 264 262 252 248 255 258 250 237 232 227 229 232 234 233 233 237 244 252 264 272 276 274 268 261 266 245 197 207 185 184 179 185 189 179 166 163 161 163 163 170 172 185 195 203 151 136 148 168 176 187 171 170 179 178 173 160 165 157 155 157
15 16 15 11 6 358 353 347 338 329 301 265 259 262 263 263 269 276 273 273 273 268 267 268 264 259 259 259 256 234 232 234 232 231 229 226 227 231 234 233 236 242 246 252 262 265 260 254 253 246 221 202 201 185 188 184 179 190 178 167 165 160 154 157 160 165 152 150 119 100 90 167 173 177 184 171 172 172 183 171 163 163 156 165 152
14 19 18 14 9 3 357 350 345 340 327 323 316 277 252 252 257 259 265 265 264 266 264 255 255 257 250 252 252 253 249 240 234 230 231 227 224 227 230 234 235 236 237 244 251 255 255 253 245 234 214 201 202 191 182 178 186 199 179 170 167 162 157 157 166 166 157 147 147 138 180 173 174 185 180 177 170 176 177 168 166 167 162 156 149
15 18 15 17 7 4 4 356 352 348 342 333 315 311 313 284 255 255 254 255 258 259 257 257 250 248 253 248 253 252 246 247 239 235 233 232 228 222 227 233 229 227 227 234 241 246 249 246 237 229 214 206 197 192 185 170 188 192 177 173 167 161 159 163 164 169 158 155 149 159 178 183 179 183 182 169 172 184 171 169 167 162 161 151 151
13 12 13 18 7 7 3 358 354 348 343 337 329 321 307 312 302 267 264 263 257 253 252 254 254 251 250 252 246 244 239 235 236 233 235 235 231 221 221 218 206 212 216 216 231 238 244 240 235 231 218 210 203 194 186 173 188 187 177 170 163 161 169 167 161 157 155 162 155 163 180 178 175 178 176 173 176 176 167 165 167 165 153 153 149
9 7 1 14 7 2 360 356 352 354 345 338 331 328 321 311 299 295 266 252 255 258 260 257 253 251 246 245 246 236 233 232 230 218 222 227 228 216 206 203 209 206 209 216 224 233 242 240 237 235 228 216 201 197 188 182 185 179 175 167 163 168 170 167 155 152 158 169 160 165 173 182 171 178 177 171 168 168 166 165 172 159 155 148 144
8 6 358 8 3 358 358 358 350 357 353 343 335 326 326 324 319 310 306 276 249 245 246 252 254 252 248 242 236 239 235 233 228 221 213 210 201 202 200 200 198 198 206 215 226 238 247 244 235 229 225 214 197 184 181 185 182 178 169 166 169 168 165 162 152 151 163 166 161 166 174 185 182 181 177 171 168 158 165 171 166 160 152 150 149
7 2 356 4 3 359 354 358 352 354 359 350 341 333 331 330 322 318 312 310 302 275 248 245 247 251 250 247 244 238 238 238 236 230 221 215 196 194 197 186 181 189 203 204 205 240 242 238 224 198 175 163 174 169 162 162 176 174 174 170 160 163 163 161 152 154 157 166 163 165 175 187 184 174 172 168 164 163 172 170 166 156 153 154 146
357 354 359 7 0 359 350 356 355 352 359 352 342 341 334 324 317 315 311 309 305 304 294 270 259 249 249 249 246 240 236 239 237 229 225 225 189 186 182 189 186 190 191 189 195 218 246 184 192 174 160 169 169 172 166 166 160 157 163 160 150 149 149 150 151 152 153 151 151 161 172 185 175 173 172 167 167 172 166 164 162 164 158 148 143
354 359 358 4 359 359 350 353 353 353 358 347 338 338 341 339 334 327 323 317 312 306 304 298 281 271 256 245 247 247 247 236 232 216 210 194 189 189 195 195 191 185 176 177 180 176 159 168 155 165 160 164 177 173 175 165 162 159 165 162 157 156 159 162 158 146 137 137 143 155 162 172 176 175 174 169 168 169 173 168 160 162 154 146 143
359 358 357 1 354 355 352 354 350 356 355 343 339 342 335 335 332 327 324 317 311 307 302 296 292 284 278 267 247 242 241 235 230 217 214 198 192 192 196 201 189 181 174 163 171 169 174 160 168 161 173 173 180 175 173 171 166 161 162 160 160 158 151 145 144 137 130 129 131 133 144 169 175 174 175 171 174 178 170 166 159 156 150 144 144
360 355 0 360 352 351 348 353 349 356 352 345 344 340 333 334 325 327 325 319 317 312 306 302 300 293 285 270 272 257 236 238 229 210 209 214 212 205 201 200 179 181 172 165 160 165 162 147 190 162 167 175 168 172 163 152 167 157 151 153 150 147 140 136 136 124 119 120 125 121 120 139 190 185 179 176 175 175 173 160 160 154 150 148 146
359 349 348 357 350 345 350 352 344 356 350 343 341 336 338 334 329 325 322 315 312 307 305 302 297 295 290 287 271 268 256 241 239 224 207 213 215 209 201 194 176 173 169 171 168 163 159 160 169 161 154 144 162 169 169 159 161 168 153 143 140 135 131 130 126 121 120 124 122 130 125 115 116 177 186 183 190 178 171 164 157 160 155 151 148
354 342 345 346 347 344 350 352 341 348 344 340 338 334 340 330 331 327 317 309 304 304 305 302 297 293 292 291 286 270 276 259 239 235 232 217 214 207 221 235 210 168 170 173 174 167 162 160 148 139 133 161 149 132 153 157 155 152 157 143 140 144 139 122 110 106 116 125 133 136 129 128 131 180 194 183 187 179 164 160 158 157 155 156 156
350 350 352 346 347 343 347 349 343 344 342 342 333 336 334 329 327 323 322 315 304 300 301 299 296 294 293 292 289 282 263 272 258 239 234 236 228 232 219 201 198 188 173 171 174 170 165 163 163 159 153 165 149 137 127 76 39 134 148 147 142 136 138 122 119 115 110 121 121 124 134 133 137 154 154 207 190 178 171 162 163 157 159 160 159
348 346 349 336 346 343 345 348 343 345 342 341 336 335 333 327 323 324 322 318 315 306 297 295 293 291 290 289 286 279 269 260 269 257 221 226 241 234 219 194 176 191 178 171 171 169 169 162 160 159 154 158 159 161 150 136 132 153 104 139 129 127 132 119 107 97 95 106 120 125 123 123 131 132 143 197 209 187 178 165 157 158 160 158 158
339 334 344 342 346 346 344 344 340 337 337 333 330 329 327 324 323 323 322 321 317 312 304 301 298 297 295 291 287 282 275 262 256 256 243 218 214 236 254 211 194 196 181 177 167 166 161 153 146 152 150 136 150 167 172 152 143 146 141 134 126 117 127 117 123 119 124 123 115 119 118 125 128 122 121 157 209 198 180 165 161 160 161 162 159
337 331 341 348 349 342 343 339 339 334 332 325 323 324 323 320 318 317 319 317 312 316 315 309 304 300 296 293 289 286 281 272 263 260 255 237 224 220 224 221 214 195 184 175 169 169 167 163 162 157 163 160 166 180 168 171 158 147 149 147 112 121 126 130 136 138 138 147 149 137 131 137 139 141 125 118 167 206 196 170 163 158 157 155 153
338 341 345 344 343 337 338 335 334 332 328 321 320 318 318 319 316 319 318 312 316 321 320 318 313 308 304 297 293 288 287 285 268 255 249 244 224 221 225 218 227 205 185 179 171 171 170 170 165 161 166 167 164 172 178 183 167 157 149 150 139 129 124 126 120 126 138 145 150 146 142 143 143 136 132 134 138 105 176 170 162 155 155 152 152
347 339 335 340 337 329 332 330 328 330 324 321 322 317 315 313 313 316 313 313 317 318 316 313 317 319 318 315 310 303 294 287 282 264 254 246 235 217 222 213 213 215 192 184 173 172 173 171 172 164 165 172 167 170 176 179 173 152 143 137 132 132 130 134 140 150 145 133 144 146 151 146 147 148 136 151 151 111 104 117 156 158 154 150 146
334 333 336 338 328 324 324 323 320 317 309 313 314 313 310 311 313 313 310 314 319 316 310 313 315 316 314 308 305 302 297 289 277 270 263 247 249 238 217 214 212 216 195 177 177 177 171 173 176 177 169 169 174 171 174 176 171 155 143 138 134 133 133 145 148 147 127 129 134 157 159 151 150 136 140 137 127 125 129 148 145 149 134 143 149
327 328 332 329 321 321 326 320 318 311 308 307 305 303 304 302 302 304 306 310 310 307 308 311 311 310 308 308 312 313 307 297 294 284 273 264 243 239 232 213 207 214 206 173 179 175 171 173 175 177 174 169 172 173 171 169 167 155 146 140 139 139 140 141 144 142 140 135 140 153 169 155 143 135 133 127 126 137 140 164 157 153 148 146 144
331 330 332 326 320 321 321 319 316 317 318 315 308 304 302 301 296 294 296 300 300 302 303 300 302 303 307 312 314 313 313 308 302 296 289 275 255 234 229 215 205 211 216 182 178 176 172 172 171 173 176 176 174 177 174 161 156 150 151 143 138 145 140 129 136 142 138 145 147 151 146 156 139 137 133 130 132 133 133 129 138 141 143 144 149
332 339 334 327 328 325 321 316 313 317 315 312 312 310 307 306 304 301 296 291 290 294 295 291 289 297 305 309 310 318 317 313 308 302 298 286 269 253 232 212 200 201 211 194 173 177 174 171 173 171 173 173 179 165 150 146 137 122 101 94 110 131 136 135 137 138 140 150 151 147 151 144 145 140 137 135 134 135 134 126 134 136 138 145 147
335 332 326 325 329 328 325 323 324 319 318 315 314 316 313 307 303 301 299 293 291 292 287 287 286 291 302 301 309 315 313 311 309 310 306 301 281 268 243 218 201 202 209 196 178 176 176 172 169 173 170 168 172 163 171 153 141 133 123 114 85 59 105 141 148 145 155 147 153 149 149 144 152 147 142 133 135 136 129 131 134 130 137 142 145
335 337 329 329 334 332 328 322 318 315 316 317 315 309 305 303 301 301 301 301 295 288 289 283 281 290 290 294 304 307 308 308 308 307 304 300 299 289 269 232 214 202 198 196 184 179 178 174 168 172 180 173 174 172 162 151 159 161 148 130 89 64 48 79 136 166 158 157 162 156 153 152 150 152 143 141 140 138 133 132 125 123 122 128 136
332 334 331 333 330 328 320 314 311 312 317 319 314 310 307 304 302 296 293 290 280 275 273 278 278 278 278 283 295 303 305 306 307 307 306 306 306 302 281 251 220 211 200 192 190 194 184 178 174 173 175 191 169 167 167 175 165 160 144 127 152 144 111 85 22 24 172 176 166 160 160 158 153 152 155 145 145 141 138 139 138 137 137 130 129
333 330 330 321 317 313 313 311 312 317 317 314 311 308 306 303 299 293 284 277 283 279 274 273 271 272 273 277 286 293 300 302 307 307 304 306 310 310 310 281 241 217 202 195 189 189 189 183 182 174 167 167 170 178 183 180 160 150 163 179 166 163 152 187 165 165 334 210 188 162 160 164 153 141 158 150 153 142 140 146 148 149 148 143 143
333 331 325 320 314 314 311 312 318 317 315 311 308 307 307 304 302 298 288 285 279 282 284 281 276 273 275 273 281 292 297 301 303 304 302 300 305 309 310 303 269 227 211 207 193 186 184 186 179 174 174 169 172 172 180 180 179 177 153 128 115 178 195 159 132 28 351 165 200 166 162 165 162 156 156 160 149 146 139 148 150 149 150 148 149
328 323 315 312 316 315 317 323 322 319 313 309 307 312 313 311 308 305 303 296 291 286 282 285 287 284 278 272 270 278 292 297 299 300 299 293 291 294 300 306 306 259 207 207 204 193 184 182 181 180 183 180 166 168 172 186 180 185 186 176 167 170 150 150 157 186 231 304 175 131 184 178 162 158 158 158 152 144 145 148 151 152 150 151 154
318 309 309 317 323 322 325 325 319 315 310 305 308 316 317 310 305 300 296 294 293 287 282 282 282 281 275 275 274 278 285 294 296 294 297 295 290 287 290 300 303 296 245 206 210 198 189 188 188 184 184 182 173 171 174 178 175 192 190 202 36 40 159 150 179 116 140 332 360 165 176 205 177 158 163 160 154 146 154 151 154 153 151 149 152
312 312 326 329 326 322 316 315 317 315 310 305 306 314 313 314 308 302 295 291 291 290 290 286 284 284 280 272 266 265 272 280 290 293 297 297 294 291 292 293 297 299 295 244 210 210 199 195 190 185 181 179 183 178 176 173 174 185 193 180 73 113 162 183 160 163 169 160 194 325 43 83 203 177 165 164 159 156 155 157 154 151 148 148 148
314 323 327 326 322 317 317 318 314 312 312 308 313 323 325 317 305 298 295 290 292 292 292 286 281 281 279 272 256 251 252 258 270 281 288 295 296 294 297 294 290 296 306 290 239 212 209 196 191 190 183 181 181 183 175 179 181 179 175 176 137 140 159 179 194 169 156 159 159 167 160 65 40 208 172 180 163 158 158 159 155 153 152 150 155
311 323 320 321 320 319 316 314 314 317 316 327 332 327 324 314 310 313 312 308 302 292 287 285 283 280 278 276 264 246 231 242 261 274 282 287 294 296 295 286 286 292 300 300 280 229 207 199 194 189 185 183 184 184 185 180 183 180 180 166 151 148 148 154 174 176 173 164 159 179 171 162 169 191 138 180 175 158 158 156 156 154 155 155 154
322 328 324 321 320 319 317 318 317 318 325 325 325 321 316 319 318 314 310 305 304 308 310 297 283 276 277 277 267 243 223 225 245 267 272 283 290 294 292 291 291 291 293 295 295 259 216 205 197 189 189 186 184 185 188 183 178 180 179 174 172 169 172 179 176 176 162 150 141 161 165 174 170 152 179 211 166 160 153 157 158 158 157 159 156